Location: Newark
(34.3481°N, 134.0494°E)
Time: 20:52:26
(UTC+00:00)

Vanguard 3 - Pass Details

Date: 20 January 2020
Orbit: 508 x 3263 km, 33.3° (Epoch: 22 February)

Event Time Altitude Azimuth Distance (km) Brightness Sun altitude
Rises 09:18:58 0° 235° (SW) 7,154 13.5 -12.1°
Reaches altitude 10° 09:23:48 10° 233° (SW) 6,193 12.8 -13.0°
Maximum altitude 09:43:18 65° 157° (SSE) 3,061 9.9 -16.9°
Enters shadow 09:53:33 24° 85° (E) 3,851 9.9 -19.0°
